TimeEDT,TemperatureF,Dew PointF,Humidity,Sea Level PressureIn,VisibilityMPH,Wind Direction,Wind SpeedMPH,Gust SpeedMPH,PrecipitationIn,Events,Conditions,WindDirDegrees,DateUTC
12:15 AM,49.3,48.9,99,30.19,10.0,Calm,Calm,-,N/A,,Clear,0,2012-10-24 04:15:00
12:35 AM,48.9,48.7,99,30.19,10.0,Calm,Calm,-,N/A,,Clear,0,2012-10-24 04:35:00
12:55 AM,48.0,48.0,100,30.19,10.0,Calm,Calm,-,N/A,,Clear,0,2012-10-24 04:55:00
1:15 AM,47.7,47.7,100,30.19,10.0,Calm,Calm,-,N/A,,Clear,0,2012-10-24 05:15:00
1:35 AM,47.5,47.5,100,30.19,10.0,Calm,Calm,-,N/A,,Clear,0,2012-10-24 05:35:00
1:55 AM,47.5,47.5,100,30.19,10.0,Calm,Calm,-,N/A,,Clear,0,2012-10-24 05:55:00
2:15 AM,46.2,46.2,100,30.19,10.0,Calm,Calm,-,N/A,,Clear,0,2012-10-24 06:15:00
2:35 AM,46.6,46.6,100,30.19,10.0,Calm,Calm,-,N/A,,Clear,0,2012-10-24 06:35:00
2:55 AM,46.0,46.0,100,30.19,10.0,Calm,Calm,-,N/A,,Clear,0,2012-10-24 06:55:00
3:15 AM,45.5,45.5,100,30.19,10.0,Calm,Calm,-,N/A,,Clear,0,2012-10-24 07:15:00
3:35 AM,45.1,45.1,100,30.19,10.0,Calm,Calm,-,N/A,,Clear,0,2012-10-24 07:35:00
3:55 AM,45.0,45.0,100,30.19,10.0,Calm,Calm,-,N/A,,Clear,0,2012-10-24 07:55:00
4:15 AM,44.1,44.1,100,30.19,10.0,Calm,Calm,-,N/A,,Clear,0,2012-10-24 08:15:00
4:35 AM,44.2,44.2,100,30.19,10.0,Calm,Calm,-,N/A,,Clear,0,2012-10-24 08:35:00
4:55 AM,43.7,43.7,100,30.19,10.0,Calm,Calm,-,N/A,,Clear,0,2012-10-24 08:55:00
5:15 AM,44.2,44.2,100,30.19,10.0,Calm,Calm,-,N/A,,Clear,0,2012-10-24 09:15:00
5:35 AM,43.2,43.2,100,30.20,10.0,Calm,Calm,-,N/A,,Clear,0,2012-10-24 09:35:00
5:55 AM,43.9,43.9,100,30.21,10.0,Calm,Calm,-,N/A,,Clear,0,2012-10-24 09:55:00
6:15 AM,43.2,43.2,100,30.21,10.0,Calm,Calm,-,N/A,,Clear,0,2012-10-24 10:15:00
6:35 AM,43.0,43.0,100,30.22,7.0,Calm,Calm,-,N/A,,Clear,0,2012-10-24 10:35:00
6:55 AM,42.4,42.4,100,30.23,10.0,Calm,Calm,-,N/A,,Clear,0,2012-10-24 10:55:00
7:15 AM,42.8,42.8,100,30.23,10.0,Calm,Calm,-,N/A,,Clear,0,2012-10-24 11:15:00
7:35 AM,42.8,42.8,100,30.24,10.0,Calm,Calm,-,N/A,,Clear,0,2012-10-24 11:35:00
7:55 AM,42.4,42.4,100,30.24,7.0,Calm,Calm,-,N/A,,Clear,0,2012-10-24 11:55:00
8:15 AM,42.8,42.8,100,30.24,10.0,Calm,Calm,-,N/A,,Clear,0,2012-10-24 12:15:00
8:35 AM,45.0,45.0,100,30.24,10.0,Calm,Calm,-,N/A,,Clear,0,2012-10-24 12:35:00
8:55 AM,47.3,47.3,100,30.24,10.0,Calm,Calm,-,N/A,,Clear,0,2012-10-24 12:55:00
9:15 AM,50.9,50.2,97,30.25,10.0,Calm,Calm,-,N/A,,Clear,0,2012-10-24 13:15:00
9:35 AM,55.4,52.9,91,30.25,10.0,Calm,Calm,-,N/A,,Clear,0,2012-10-24 13:35:00
9:55 AM,60.1,55.4,85,30.25,10.0,Calm,Calm,-,N/A,,Clear,0,2012-10-24 13:55:00
10:15 AM,63.9,57.6,80,30.25,10.0,NNW,4.6,-,N/A,,Clear,340,2012-10-24 14:15:00
10:35 AM,65.3,59.0,80,30.25,10.0,NNW,3.5,-,N/A,,Clear,330,2012-10-24 14:35:00
10:55 AM,67.5,60.1,77,30.24,10.0,NW,3.5,-,N/A,,Clear,320,2012-10-24 14:55:00
11:15 AM,69.4,59.9,72,30.24,10.0,Calm,Calm,-,N/A,,Clear,0,2012-10-24 15:15:00
11:35 AM,70.7,59.4,67,30.23,10.0,Calm,Calm,-,N/A,,Clear,0,2012-10-24 15:35:00
11:55 AM,72.1,59.9,65,30.22,10.0,Calm,Calm,-,N/A,,Clear,0,2012-10-24 15:55:00
12:15 PM,72.9,60.4,65,30.22,10.0,Calm,Calm,-,N/A,,Clear,0,2012-10-24 16:15:00
12:35 PM,75.2,59.9,59,30.21,10.0,Calm,Calm,-,N/A,,Clear,0,2012-10-24 16:35:00
12:55 PM,76.1,59.5,56,30.20,10.0,NNE,4.6,-,N/A,,Clear,30,2012-10-24 16:55:00
1:15 PM,75.9,58.1,54,30.19,10.0,North,3.5,-,N/A,,Clear,360,2012-10-24 17:15:00
1:35 PM,76.8,56.7,50,30.18,10.0,East,4.6,-,N/A,,Clear,80,2012-10-24 17:35:00
1:55 PM,77.4,57.7,51,30.17,10.0,Calm,Calm,-,N/A,,Clear,0,2012-10-24 17:55:00
2:15 PM,78.1,57.2,49,30.16,10.0,Calm,Calm,-,N/A,,Clear,0,2012-10-24 18:15:00
2:35 PM,77.7,56.8,48,30.15,10.0,SE,3.5,-,N/A,,Clear,130,2012-10-24 18:35:00
2:55 PM,79.0,57.0,47,30.14,10.0,ESE,4.6,-,N/A,,Clear,110,2012-10-24 18:55:00
3:15 PM,78.4,56.1,46,30.14,10.0,Calm,Calm,-,N/A,,Clear,0,2012-10-24 19:15:00
3:35 PM,78.6,57.2,48,30.13,10.0,SSE,3.5,-,N/A,,Clear,150,2012-10-24 19:35:00
3:55 PM,78.8,57.2,47,30.13,10.0,Calm,Calm,-,N/A,,Clear,0,2012-10-24 19:55:00
4:15 PM,79.2,57.0,46,30.13,10.0,East,6.9,-,N/A,,Clear,90,2012-10-24 20:15:00
4:35 PM,79.2,55.0,43,30.12,10.0,East,5.8,-,N/A,,Clear,100,2012-10-24 20:35:00
5:15 PM,78.6,57.0,47,30.12,10.0,ESE,4.6,-,N/A,,Clear,120,2012-10-24 21:15:00
5:35 PM,77.9,57.6,49,30.12,10.0,ESE,4.6,-,N/A,,Clear,120,2012-10-24 21:35:00
5:55 PM,77.0,57.7,51,30.13,10.0,Calm,Calm,-,N/A,,Clear,0,2012-10-24 21:55:00
6:15 PM,75.6,57.4,53,30.13,10.0,North,-9999.0,-,N/A,,Clear,0,2012-10-24 22:15:00
6:35 PM,73.6,57.7,58,30.13,10.0,Calm,Calm,-,N/A,,Clear,0,2012-10-24 22:35:00
6:55 PM,70.2,58.1,65,30.13,10.0,Calm,Calm,-,N/A,,Clear,0,2012-10-24 22:55:00
7:15 PM,67.5,58.1,72,30.14,10.0,Calm,Calm,-,N/A,,Clear,0,2012-10-24 23:15:00
7:35 PM,64.8,57.4,77,30.14,10.0,Calm,Calm,-,N/A,,Clear,0,2012-10-24 23:35:00
7:55 PM,63.3,57.2,80,30.14,10.0,Calm,Calm,-,N/A,,Clear,0,2012-10-24 23:55:00
8:15 PM,62.2,57.0,83,30.15,10.0,Calm,Calm,-,N/A,,Clear,0,2012-10-25 00:15:00
8:55 PM,59.7,56.5,89,30.15,10.0,Calm,Calm,-,N/A,,Clear,0,2012-10-25 00:55:00
9:15 PM,59.0,56.3,91,30.15,10.0,Calm,Calm,-,N/A,,Clear,0,2012-10-25 01:15:00
9:35 PM,57.7,55.9,94,30.15,10.0,Calm,Calm,-,N/A,,Clear,0,2012-10-25 01:35:00
9:55 PM,58.1,55.9,93,30.16,10.0,Calm,Calm,-,N/A,,Clear,0,2012-10-25 01:55:00
10:15 PM,56.7,55.4,96,30.16,10.0,Calm,Calm,-,N/A,,Clear,0,2012-10-25 02:15:00
10:55 PM,56.3,56.3,100,30.16,10.0,Calm,Calm,-,N/A,,Clear,0,2012-10-25 02:55:00
11:15 PM,55.8,55.8,100,30.16,10.0,Calm,Calm,-,N/A,,Clear,0,2012-10-25 03:15:00
11:35 PM,55.6,55.4,99,30.16,10.0,Calm,Calm,-,N/A,,Clear,0,2012-10-25 03:35:00
11:55 PM,54.7,54.7,100,30.16,10.0,Calm,Calm,-,N/A,,Clear,0,2012-10-25 03:55:00